KF4PPJ Weather Reports


Display with metric or nautical units.
time (UTC)temp
F
wind
direction
speed
MPH
gust
MPH
rain 1hr
in
rain 24hr
in
rain mn
in
humidity
%
barometer
mb
20260902030622 60 144 0.0 0.0 0.00 0.01 0.01 91 1013.0
20260902030121 60 172 2.0 2.0 0.00 0.01 0.01 91 1013.1
20260902025620 60 90 1.0 1.0 0.00 0.01 0.01 91 1012.8
20260902025116 60 160 0.0 2.0 0.07 0.01 0.01 90 1013.0
20260902024611 60 160 1.0 5.0 0.00 0.00 0.00 89 1013.1
20260902024106 60 187 1.0 3.0 0.00 0.00 0.00 88 1013.0
20260902023602 61 157 4.0 6.0 0.00 0.00 0.00 86 1013.1
20260902023057 61 154 1.0 6.0 0.00 0.00 0.00 85 1013.1
20260902022556 62 216 7.0 13.0 0.00 0.00 0.00 82 1013.0
20260902022053 62 190 5.0 15.0 0.00 0.00 0.00 81 1012.8
20260902021547 63 119 5.0 6.0 0.00 0.00 0.00 81 1013.1
20260902021042 63 197 1.0 2.0 0.00 0.00 0.00 80 1012.9
20260902020538 63 124 5.0 7.0 0.00 0.00 0.00 81 1012.8
20260902020034 64 179 2.0 5.0 0.00 0.00 0.00 80 1012.8
20260902015530 64 187 1.0 3.0 0.00 0.00 0.00 80 1012.8
20260902015025 64 195 2.0 3.0 0.00 0.00 0.00 80 1012.8
20260902014521 64 183 2.0 3.0 0.00 0.00 0.00 80 1012.8
20260902014016 64 199 4.0 5.0 0.00 0.00 0.00 80 1012.8
20260902013511 64 159 1.0 3.0 0.00 0.00 0.00 79 1012.8
20260902013007 64 147 2.0 3.0 0.00 0.00 0.00 79 1012.7
20260902012502 64 168 2.0 2.0 0.00 0.00 0.00 79 1012.8
20260902011957 64 191 3.0 7.0 0.00 0.00 0.00 78 1012.7
20260902011453 64 201 2.0 3.0 0.00 0.00 0.00 78 1012.8
20260902010952 63 158 1.0 3.0 0.00 0.00 0.00 79 1012.6
20260902010447 63 181 1.0 5.0 0.00 0.00 0.00 80 1012.8
20260902005946 63 191 4.0 7.0 0.00 0.00 0.00 80 1012.9
20260902005445 64 156 3.0 6.0 0.00 0.00 0.00 79 1012.9
20260902004942 64 160 3.0 3.0 0.00 0.00 0.00 79 1013.1
20260902004441 64 202 6.0 8.0 0.00 0.00 0.00 78 1013.0
20260902003937 64 173 1.0 5.0 0.00 0.00 0.00 77 1012.8
20260902003436 64 199 3.0 6.0 0.00 0.00 0.00 77 1012.9
20260902002932 64 165 3.0 5.0 0.00 0.00 0.00 77 1012.8
20260902002426 64 219 5.0 7.0 0.00 0.00 0.00 78 1012.9
20260902001926 64 205 3.0 5.0 0.00 0.00 0.00 80 1012.9
20260902001421 63 158 4.0 7.0 0.00 0.00 0.00 81 1013.0
20260902000916 63 197 3.0 6.0 0.00 0.00 0.00 81 1012.9
20260902000411 64 156 1.0 3.0 0.00 0.00 0.00 80 1012.8
20260901235907 63 148 1.0 6.0 0.00 0.00 0.00 81 1012.9
20260901235406 63 155 3.0 6.0 0.00 0.00 0.00 81 1012.7
20260901234901 64 172 4.0 11.0 0.00 0.00 0.00 80 1012.9
20260901234355 64 199 3.0 7.0 0.00 0.00 0.00 79 1013.0
20260901233850 64 220 5.0 8.0 0.00 0.00 0.00 78 1013.0
20260901233346 65 199 7.0 10.0 0.00 0.00 0.00 77 1012.7
20260901232842 65 196 5.0 7.0 0.00 0.00 0.00 77 1012.9
20260901232337 65 286 6.0 8.0 0.00 0.00 0.00 77 1012.9
20260901231832 64 211 5.0 9.0 0.00 0.00 0.00 77 1012.8
20260901231329 64 193 5.0 8.0 0.00 0.00 0.00 78 1013.0
20260901230825 64 224 2.0 3.0 0.00 0.00 0.00 79 1012.9
20260901230324 63 169 1.0 7.0 0.00 0.00 0.00 79 1012.9
20260901225820 64 216 4.0 7.0 0.00 0.00 0.00 79 1012.7
20260901225319 64 188 4.0 8.0 0.00 0.00 0.00 79 1012.8
20260901224814 64 166 3.0 5.0 0.00 0.00 0.00 79 1013.0
20260901224311 64 191 3.0 5.0 0.00 0.00 0.00 78 1012.8
20260901223808 64 216 3.0 7.0 0.00 0.00 0.00 78 1012.9
20260901223308 64 176 2.0 3.0 0.00 0.00 0.00 78 1012.8
20260901222803 64 186 4.0 7.0 0.00 0.00 0.00 78 1012.9
20260901222254 64 182 7.0 8.0 0.00 0.00 0.00 77 1013.1
20260901221750 64 200 5.0 9.0 0.00 0.00 0.00 77 1013.0
20260901221245 64 150 5.0 6.0 0.00 0.00 0.00 77 1012.9
20260901220744 64 205 4.0 5.0 0.00 0.00 0.00 78 1013.0
20260901220238 64 189 7.0 7.0 0.00 0.00 0.00 78 1013.0
20260901215737 64 201 5.0 7.0 0.00 0.00 0.00 77 1012.9
20260901215231 64 145 3.0 5.0 0.00 0.00 0.00 77 1012.9
20260901214730 64 159 1.0 5.0 0.00 0.00 0.00 77 1013.0
20260901214229 64 241 6.0 7.0 0.00 0.00 0.00 76 1013.0
20260901213729 65 184 4.0 6.0 0.00 0.00 0.00 76 1013.0
20260901213224 65 183 5.0 6.0 0.00 0.00 0.00 75 1013.0
20260901212723 65 176 0.0 2.0 0.00 0.00 0.00 75 1012.9
20260901212219 65 156 5.0 8.0 0.00 0.00 0.00 75 1013.1
20260901211714 65 194 5.0 9.0 0.00 0.00 0.00 75 1012.9
20260901211211 65 172 3.0 6.0 0.00 0.00 0.00 76 1012.9
20260901210706 65 216 3.0 7.0 0.00 0.00 0.00 76 1013.1
20260901210201 64 184 2.0 5.0 0.00 0.00 0.00 76 1013.1
20260901205657 65 223 3.0 5.0 0.00 0.00 0.00 76 1013.0
20260901205152 65 250 2.0 9.0 0.00 0.00 0.00 76 1013.1
20260901204647 64 143 3.0 6.0 0.00 0.00 0.00 76 1013.2
20260901204142 64 198 3.0 7.0 0.00 0.00 0.00 76 1013.2
20260901203636 64 152 2.0 5.0 0.00 0.00 0.00 76 1013.1
20260901203131 64 145 1.0 7.0 0.00 0.00 0.00 76 1013.2
20260901202631 64 193 4.0 9.0 0.00 0.00 0.00 75 1013.2
20260901202127 65 174 4.0 7.0 0.00 0.00 0.00 75 1013.1
20260901201623 64 226 4.0 6.0 0.00 0.00 0.00 76 1013.1
20260901201122 64 203 4.0 6.0 0.00 0.00 0.00 76 1013.2
20260901200621 64 212 3.0 3.0 0.00 0.00 0.00 76 1013.2
20260901200116 65 223 3.0 3.0 0.00 0.00 0.00 76 1013.2
20260901195614 65 181 1.0 5.0 0.00 0.00 0.00 75 1013.3
20260901195114 65 115 1.0 3.0 0.00 0.00 0.00 75 1013.2
20260901194609 65 200 2.0 5.0 0.00 0.00 0.00 75 1013.2
20260901194105 65 176 2.0 3.0 0.00 0.00 0.00 75 1013.3
20260901193600 65 218 3.0 5.0 0.00 0.00 0.00 74 1013.1
20260901193054 65 200 3.0 5.0 0.00 0.00 0.00 75 1013.1
20260901192549 65 205 2.0 5.0 0.00 0.00 0.00 75 1013.3
20260901192045 66 193 3.0 6.0 0.00 0.00 0.00 73 1013.0
20260901191541 66 164 2.0 6.0 0.00 0.00 0.00 74 1013.3
20260901191037 66 165 5.0 7.0 0.00 0.00 0.00 74 1013.4
20260901190532 65 160 0.0 1.0 0.00 0.00 0.00 76 1013.3
20260901190032 65 172 3.0 5.0 0.00 0.00 0.00 76 1013.6
20260901185530 65 170 3.0 3.0 0.00 0.00 0.00 75 1013.4
20260901185029 65 191 2.0 6.0 0.00 0.00 0.00 75 1013.3
20260901184525 65 150 2.0 6.0 0.00 0.00 0.00 76 1013.6
20260901184020 64 201 3.0 5.0 0.00 0.00 0.00 76 1013.5
20260901183515 64 187 3.0 3.0 0.00 0.00 0.00 77 1013.6
20260901183011 64 176 4.0 7.0 0.00 0.00 0.00 76 1013.5
20260901182507 64 250 5.0 8.0 0.00 0.00 0.00 76 1013.5
20260901182007 64 191 3.0 6.0 0.00 0.00 0.00 76 1013.3
20260901181506 64 165 2.0 5.0 0.00 0.00 0.00 76 1013.4
20260901181005 64 174 0.0 3.0 0.00 0.00 0.00 77 1013.5
20260901180504 63 226 4.0 5.0 0.00 0.00 0.00 77 1013.2
20260901180003 64 201 5.0 6.0 0.00 0.00 0.00 77 1013.4
20260901175458 63 193 3.0 5.0 0.00 0.00 0.00 78 1013.2
20260901174953 63 159 1.0 6.0 0.00 0.00 0.00 79 1013.3
20260901174448 63 255 3.0 5.0 0.00 0.00 0.00 79 1013.1
20260901173944 63 199 3.0 7.0 0.00 0.00 0.00 79 1013.0
20260901173439 63 216 5.0 6.0 0.00 0.00 0.00 79 1013.1
20260901172936 63 179 3.0 7.0 0.00 0.00 0.00 78 1013.0
20260901172431 64 206 5.0 7.0 0.00 0.00 0.00 77 1013.2
20260901171929 64 176 3.0 6.0 0.00 0.00 0.00 77 1013.3
20260901171427 63 186 2.0 6.0 0.00 0.00 0.00 79 1012.9
20260901170926 63 179 5.0 7.0 0.00 0.00 0.00 79 1013.1
20260901170416 62 180 1.0 7.0 0.00 0.00 0.00 80 1013.2
20260901165915 62 188 4.0 7.0 0.00 0.00 0.00 81 1013.1
20260901165409 62 187 4.0 7.0 0.00 0.00 0.00 81 1013.0
20260901164901 62 173 3.0 3.0 0.00 0.00 0.00 82 1013.3
20260901164355 61 212 4.0 6.0 0.00 0.00 0.00 82 1013.4
20260901163855 61 199 3.0 6.0 0.00 0.00 0.00 83 1013.4
20260901163350 61 172 0.0 3.0 0.00 0.00 0.00 84 1013.4
20260901162845 61 174 2.0 7.0 0.00 0.00 0.00 84 1013.4
20260901162344 61 170 4.0 5.0 0.00 0.00 0.00 84 1013.1
20260901161843 60 173 2.0 6.0 0.00 0.00 0.00 85 1013.4
20260901161338 60 188 3.0 5.0 0.00 0.00 0.00 85 1013.4
20260901160833 60 185 0.0 6.0 0.00 0.00 0.00 85 1013.4
20260901160330 60 209 3.0 6.0 0.00 0.00 0.00 86 1013.3
20260901155828 60 161 2.0 7.0 0.00 0.00 0.00 86 1013.4
20260901155323 60 131 1.0 3.0 0.00 0.00 0.00 87 1013.3
20260901154820 60 204 3.0 3.0 0.00 0.00 0.00 87 1013.5
20260901154313 60 168 2.0 3.0 0.00 0.00 0.00 88 1013.4
20260901153808 59 190 3.0 6.0 0.00 0.00 0.00 88 1013.5
20260901153308 59 155 3.0 3.0 0.00 0.00 0.00 89 1013.7
20260901152807 59 207 2.0 5.0 0.00 0.00 0.00 89 1013.6
20260901152306 59 155 1.0 3.0 0.00 0.00 0.00 89 1013.7
20260901151802 59 135 3.0 3.0 0.00 0.00 0.00 89 1013.4
20260901151301 59 190 3.0 3.0 0.00 0.00 0.00 90 1013.5
20260901150755 59 187 2.0 3.0 0.00 0.00 0.00 90 1013.7
20260901150253 59 193 3.0 3.0 0.00 0.00 0.00 90 1013.5
20260901145751 59 189 5.0 6.0 0.00 0.00 0.00 91 1013.6
20260901145245 59 169 3.0 5.0 0.00 0.00 0.00 91 1013.3
20260901144741 58 200 3.0 3.0 0.00 0.00 0.00 92 1013.6
20260901144236 58 229 3.0 6.0 0.00 0.00 0.00 92 1013.2
20260901143732 58 183 2.0 7.0 0.00 0.00 0.00 93 1013.3
20260901143227 58 161 4.0 6.0 0.00 0.00 0.00 93 1013.2
20260901142724 58 205 1.0 3.0 0.00 0.00 0.00 94 1013.2
20260901142223 58 173 1.0 1.0 0.00 0.00 0.00 94 1013.2
20260901141719 58 180 1.0 3.0 0.00 0.00 0.00 95 1013.2
20260901141219 57 169 1.0 2.0 0.00 0.00 0.00 95 1013.0
20260901140718 57 146 2.0 2.0 0.00 0.00 0.00 95 1013.0
20260901140217 57 169 3.0 3.0 0.00 0.00 0.00 96 1012.9
20260901135712 57 172 1.0 3.0 0.00 0.00 0.00 96 1012.7
20260901135211 57 203 3.0 5.0 0.00 0.00 0.00 96 1013.1
20260901134708 57 150 1.0 3.0 0.00 0.00 0.00 96 1012.8
20260901134202 56 186 1.0 2.0 0.00 0.00 0.00 96 1012.8
20260901133702 56 173 0.0 3.0 0.00 0.00 0.00 96 1012.9
20260901133201 56 157 0.0 1.0 0.00 0.00 0.00 96 1013.1
20260901132700 55 150 1.0 3.0 0.00 0.00 0.00 97 1013.1
20260901132155 54 136 1.0 3.0 0.00 0.00 0.00 97 1012.9
20260901131650 53 162 0.0 0.0 0.00 0.00 0.00 96 1013.0
20260901131149 54 161 0.0 0.0 0.00 0.00 0.00 96 1012.8
20260901130644 54 149 0.0 0.0 0.00 0.00 0.00 96 1012.8
20260901130143 53 152 0.0 0.0 0.00 0.00 0.00 96 1013.1
20260901125641 53 152 0.0 0.0 0.00 0.00 0.00 96 1012.8
20260901125136 54 146 0.0 0.0 0.00 0.00 0.00 96 1012.9
20260901124632 53 155 0.0 0.0 0.00 0.00 0.00 96 1012.8
20260901124131 53 169 0.0 0.0 0.00 0.00 0.00 96 1012.7
20260901123626 53 154 0.0 0.0 0.00 0.00 0.00 96 1012.7
20260901123126 54 154 0.0 0.0 0.00 0.00 0.00 96 1012.7
20260901122624 54 154 0.0 0.0 0.00 0.00 0.00 96 1012.7
20260901122119 54 153 0.0 0.0 0.00 0.00 0.00 96 1012.4
20260901121614 54 153 0.0 0.0 0.00 0.00 0.00 96 1012.7
20260901121109 54 153 0.0 0.0 0.00 0.00 0.00 96 1012.7
20260901120608 54 146 0.0 0.0 0.00 0.00 0.00 96 1012.5
20260901120104 54 157 0.0 0.0 0.00 0.00 0.00 96 1012.5
20260901115559 54 147 0.0 0.0 0.00 0.00 0.00 96 1012.3
20260901115055 54 154 0.0 0.0 0.00 0.00 0.00 96 1012.1
20260901114551 54 148 0.0 0.0 0.00 0.00 0.00 96 1012.3
20260901114050 54 154 0.0 0.0 0.00 0.00 0.00 96 1012.2
20260901113549 54 151 0.0 0.0 0.00 0.00 0.00 96 1012.2
20260901113045 54 156 0.0 0.0 0.00 0.00 0.00 95 1012.3
20260901112545 54 158 0.0 0.0 0.00 0.00 0.00 95 1012.2
20260901112039 54 148 0.0 0.0 0.00 0.00 0.00 96 1012.2
20260901111538 54 148 0.0 0.0 0.00 0.00 0.00 96 1012.0
20260901111037 54 149 0.0 0.0 0.00 0.00 0.00 95 1012.3
20260901110533 54 147 0.0 0.0 0.00 0.00 0.00 95 1012.2
20260901110028 54 152 0.0 0.0 0.00 0.00 0.00 95 1012.0
20260901105525 54 149 0.0 0.0 0.00 0.00 0.00 95 1012.2
20260901105024 54 148 0.0 0.0 0.00 0.00 0.00 95 1012.2
20260901104521 54 149 0.0 0.0 0.00 0.00 0.00 95 1012.3
20260901104015 54 149 0.0 0.0 0.00 0.00 0.00 95 1012.1
20260901103510 54 150 0.0 0.0 0.00 0.00 0.00 95 1012.0
20260901103006 54 152 0.0 0.0 0.00 0.00 0.00 95 1012.1
20260901102505 54 152 0.0 0.0 0.00 0.00 0.00 95 1012.1
20260901102000 54 152 0.0 0.0 0.00 0.00 0.00 95 1012.1
20260901101455 54 152 0.0 0.0 0.00 0.00 0.00 95 1012.2
20260901100949 54 152 0.0 0.0 0.00 0.00 0.00 95 1012.1
20260901100444 55 152 0.0 0.0 0.00 0.00 0.00 95 1012.2
20260901095938 55 152 0.0 0.0 0.00 0.00 0.00 95 1011.9
20260901095437 55 152 0.0 0.0 0.00 0.00 0.00 95 1011.8
20260901094930 55 152 0.0 0.0 0.00 0.00 0.00 94 1011.8
20260901094429 55 151 0.0 0.0 0.00 0.00 0.00 94 1011.9
20260901093924 55 152 0.0 0.0 0.00 0.00 0.00 94 1011.8
20260901093423 55 153 0.0 0.0 0.00 0.00 0.00 94 1011.7
20260901092913 55 152 0.0 0.0 0.00 0.00 0.00 94 1011.8
20260901092409 55 151 0.0 0.0 0.00 0.00 0.00 94 1011.9
20260901091904 55 152 0.0 0.0 0.00 0.00 0.00 94 1011.6
20260901091358 55 151 0.0 0.0 0.00 0.00 0.00 94 1011.6
20260901090853 55 150 0.0 0.0 0.00 0.00 0.00 93 1011.8
20260901090348 55 150 0.0 0.0 0.00 0.00 0.00 93 1011.8
20260901085844 55 150 0.0 0.0 0.00 0.00 0.00 93 1011.8
20260901085339 55 147 0.0 0.0 0.00 0.00 0.00 93 1011.8
20260901084835 56 153 0.0 0.0 0.00 0.00 0.00 93 1011.8
20260901084331 56 156 0.0 0.0 0.00 0.00 0.00 93 1011.7
20260901083826 56 140 0.0 0.0 0.00 0.00 0.00 93 1011.7
20260901083321 56 153 0.0 0.0 0.00 0.00 0.00 93 1011.6
20260901082819 56 151 0.0 0.0 0.00 0.00 0.00 93 1011.6
20260901082315 56 152 0.0 0.0 0.00 0.00 0.00 93 1011.7
20260901081809 56 154 0.0 0.0 0.00 0.00 0.00 93 1011.6
20260901081304 56 154 0.0 0.0 0.00 0.00 0.00 93 1011.7
20260901080759 56 158 0.0 0.0 0.00 0.00 0.00 92 1011.6
20260901080258 56 151 0.0 0.0 0.00 0.00 0.00 92 1011.6
20260901075752 56 161 0.0 0.0 0.00 0.00 0.00 92 1011.5
20260901075247 56 160 0.0 0.0 0.00 0.00 0.00 92 1011.4
20260901074742 57 160 0.0 0.0 0.00 0.00 0.00 92 1011.2
20260901074237 56 147 0.0 0.0 0.00 0.00 0.00 92 1011.1
20260901073733 56 145 0.0 0.0 0.00 0.00 0.00 92 1011.2
20260901073229 56 145 0.0 0.0 0.00 0.00 0.00 92 1011.1
20260901072724 57 154 0.0 0.0 0.00 0.00 0.00 91 1011.5
20260901072218 57 155 0.0 0.0 0.00 0.00 0.00 91 1011.4
20260901071713 57 153 0.0 0.0 0.00 0.00 0.00 91 1011.5
20260901071212 57 153 0.0 0.0 0.00 0.00 0.00 91 1011.0
20260901070706 57 153 0.0 0.0 0.00 0.00 0.00 91 1011.4
20260901070202 57 153 0.0 0.0 0.00 0.00 0.00 91 1011.2
20260901065700 57 154 0.0 0.0 0.00 0.00 0.00 90 1011.2
20260901065155 57 154 0.0 0.0 0.00 0.00 0.00 90 1011.4
20260901064652 57 154 0.0 0.0 0.00 0.00 0.00 90 1011.1
20260901064149 57 153 0.0 0.0 0.00 0.00 0.00 89 1011.3
20260901063646 57 152 0.0 0.0 0.00 0.00 0.00 89 1011.1
20260901063141 58 163 0.0 0.0 0.00 0.00 0.00 89 1011.3
20260901062637 58 152 0.0 0.0 0.00 0.00 0.00 89 1011.2
20260901062133 58 151 0.0 0.0 0.00 0.00 0.00 89 1011.3
20260901061629 58 155 0.0 0.0 0.00 0.00 0.00 88 1011.4
20260901061129 58 153 0.0 0.0 0.00 0.00 0.00 88 1011.3
20260901060623 58 153 0.0 0.0 0.00 0.00 0.00 87 1011.5
20260901060120 59 154 0.0 0.0 0.00 0.00 0.00 87 1011.3
20260901055619 59 164 0.0 0.0 0.00 0.00 0.00 87 1011.5
20260901055116 59 156 0.0 0.0 0.00 0.00 0.00 87 1011.5
20260901054613 59 152 0.0 0.0 0.00 0.00 0.00 86 1011.5
20260901054109 59 152 0.0 0.0 0.00 0.00 0.00 85 1011.5
20260901053605 59 152 0.0 0.0 0.00 0.00 0.00 85 1011.5
20260901053100 60 152 0.0 0.0 0.00 0.00 0.00 84 1011.3
20260901052555 60 151 0.0 0.0 0.00 0.00 0.00 83 1011.5
20260901052049 60 160 0.0 0.0 0.00 0.00 0.00 82 1011.5
20260901051544 61 153 0.0 0.0 0.00 0.00 0.00 82 1011.4
20260901051043 61 100 3.0 3.0 0.00 0.00 0.00 82 1011.5
20260901050538 61 140 0.0 1.0 0.00 0.00 0.00 82 1011.7
20260901050033 61 153 0.0 1.0 0.00 0.00 0.00 81 1011.6
20260901045529 61 154 0.0 0.0 0.00 0.00 0.00 81 1011.5
20260901045029 61 146 0.0 0.0 0.00 0.00 0.00 82 1011.4
20260901044525 61 148 0.0 0.0 0.00 0.00 0.00 81 1011.4
20260901044020 61 153 0.0 0.0 0.00 0.00 0.00 81 1011.5
20260901043516 62 153 0.0 0.0 0.00 0.00 0.00 80 1011.7
20260901043011 62 130 0.0 0.0 0.00 0.00 0.00 79 1011.6
20260901042510 62 145 0.0 1.0 0.00 0.00 0.00 79 1011.6
20260901042006 62 180 1.0 2.0 0.00 0.00 0.00 80 1011.7
20260901041507 62 159 0.0 1.0 0.00 0.00 0.00 80 1011.7
20260901041001 62 145 0.0 1.0 0.00 0.00 0.00 79 1011.8
20260901040456 62 138 0.0 0.0 0.00 0.00 0.00 79 1011.7
20260901035954 62 155 0.0 1.0 0.00 0.00 0.00 78 1011.7
20260901035453 62 168 1.0 1.0 0.00 0.00 0.00 77 1011.4
20260901034952 62 162 0.0 1.0 0.00 0.00 0.00 77 1011.3
20260901034452 63 154 0.0 0.0 0.00 0.00 0.00 76 1011.5
20260901033948 63 152 0.0 1.0 0.00 0.00 0.00 75 1011.3
20260901033446 63 146 1.0 1.0 0.00 0.00 0.00 75 1011.2
20260901032945 64 152 0.0 1.0 0.00 0.00 0.00 74 1011.0
20260901032439 64 145 1.0 2.0 0.00 0.00 0.00 73 1011.2
20260901031934 64 162 0.0 1.0 0.00 0.00 0.00 72 1011.0
20260901031430 65 160 0.0 1.0 0.00 0.00 0.00 71 1011.0